User: anonymous   Login
Location: Sungai Jaoh
(2.9167°N, 113.9167°E)
Time: 04:35:28
(UTC+00:00)
Language:

deb Delta - Orbit

View from above orbital plane
View from above orbital plane
View from above satellite
View from above satellite

Ground track
Ground track

The orbit data is extracted from the following two-line orbital elements,

1 21546U 75052HA  21165.84944346  .00000604  00000-0  29804-2 0  9999
2 21546  99.5373 132.4277 0622309  46.6376 345.3008 12.26641040344770
Epoch (UTC): 14 June 2021 20:23:11
Eccentricity: 0.0622309
inclination: 99.5373°
perigee height: 1069 km
apogee height: 2058 km
right ascension of ascending node: 132.4277°
argument of perigee: 46.6376°
revolutions per day: 12.26641040
mean anomaly at epoch: 345.3008°
orbit number at epoch: 34477

The dashed part of the orbit path shows where the satellite is in the earth's shadow,  

DLR